Terminal Aerodrome Forecast
Issued by NWS

Current Version | Previous Version | Text Only | Print | Product List | Glossary On
Versions: 1 2 3 4 5 6 7 8 9 10 11 12 13 14 15 16 17 18 19 20 21 22 23 24 25 26 27
164
FTUS41 KBUF 010431 AAB
TAFJHW
TAF AMD
KJHW 010431Z 0105/0124 VRB05KT P6SM VCSH OVC025 WS020/20040KT
     FM010600 17010KT P6SM BKN100 WS020/20045KT
     FM011300 18014G20KT P6SM OVC070
     FM011500 18016G23KT P6SM VCSH OVC050
     FM011900 19014KT 4SM SHRA VCTS OVC025CB
     FM012200 21011KT P6SM VCSH OVC060
      AMD LTD TO CLD VIS AND WIND=

USA.gov is the U.S. government's official web portal to all federal, state and local government web resources and services.